DW3200 Weather Reports


time (UTC)temp
C
wind
direction
speed
KPH
gust
KPH
rain 1hr
cm
rain 24hr
cm
rain mn
cm
humidity
%
barometer
mb
20260902164559 10 86 4.8 0.0 0.00 0.00 0.25 90 1009.5
20260902163056 10 122 1.6 0.0 0.00 0.00 0.18 89 1009.3
20260902161558 10 124 0.0 0.0 0.00 0.00 0.15 88 1009.1
20260902160107 10 123 0.0 0.0 0.00 0.00 0.10 87 1008.6
20260902154600 11 123 0.0 0.0 0.00 0.00 0.05 85 1008.7
20260902153054 11 123 1.6 0.0 0.00 0.00 0.03 84 1009.3
20260902151553 11 80 1.6 0.0 0.00 0.00 0.03 83 1008.3
20260902150031 11 88 0.0 0.0 0.00 0.00 0.00 85 1007.9
20260902144527 11 88 0.0 0.0 0.00 0.00 0.00 85 1007.5
20260902143010 11 88 0.0 0.0 0.00 0.00 0.00 86 1007.4
20260902141506 10 88 0.0 0.0 0.00 0.00 0.00 86 1006.6
20260902140047 10 88 0.0 0.0 0.00 0.00 0.03 86 1006.5
20260902134545 10 88 0.0 0.0 0.00 0.00 0.03 85 1005.9
20260902133029 11 88 0.0 0.0 0.00 0.00 0.03 85 1005.8
20260902131536 11 88 0.0 0.0 0.00 0.00 0.03 84 1005.6
20260902130010 11 88 0.0 0.0 0.00 0.00 0.03 85 1005.4
20260902124514 11 88 0.0 0.0 0.00 0.00 0.03 86 1005.3
20260902123053 10 88 0.0 0.0 0.00 0.00 0.03 86 1005.1
20260902121552 10 88 0.0 0.0 0.00 0.00 0.03 86 1004.9
20260902120037 10 88 0.0 0.0 0.00 0.00 0.03 86 1004.8
20260902114541 10 88 0.0 0.0 0.00 0.00 0.03 85 1004.6
20260902113016 10 88 0.0 0.0 0.00 0.00 0.03 85 1004.5
20260902111516 10 88 0.0 0.0 0.00 0.00 0.03 85 1004.5
20260902104618 10 88 0.0 0.0 0.00 0.00 0.03 84 1004.3
20260902103040 10 88 0.0 0.0 0.00 0.00 0.03 83 1004.2
20260902101540 10 88 0.0 0.0 0.00 0.00 0.03 84 1004.1
20260902100022 10 88 0.0 0.0 0.00 0.00 0.03 83 1004.1
20260902094521 10 88 0.0 0.0 0.00 0.00 0.03 82 1004.1
20260902093002 11 88 0.0 0.0 0.00 0.00 0.03 83 1004.2
20260902091501 11 88 0.0 0.0 0.00 0.00 0.03 82 1004.4
20260902090041 11 88 0.0 0.0 0.00 0.00 0.03 81 1004.8
20260902084540 11 88 0.0 0.0 0.00 0.00 0.03 80 1005.0
20260902083028 11 88 0.0 0.0 0.00 0.00 0.03 76 1004.9
20260902081527 12 88 0.0 0.0 0.00 0.00 0.03 74 1004.9
20260902080027 13 88 0.0 0.0 0.00 0.00 0.03 72 1004.9
20260902074527 15 88 0.0 0.0 0.00 0.00 0.03 63 1004.9
20260902073027 17 88 0.0 0.0 0.00 0.00 0.03 59 1005.0
20260902071533 18 88 1.6 0.0 0.00 0.00 0.03 57 1005.0
20260902070026 18 89 4.8 0.0 0.00 0.00 0.03 58 1004.9
20260902064524 17 34 1.6 0.0 0.00 0.00 0.03 62 1005.0
20260902063005 16 34 1.6 0.0 0.00 0.00 0.03 66 1005.2
20260902061506 14 32 0.0 0.0 0.00 0.00 0.03 75 1005.3
20260902060111 14 32 1.6 0.0 0.00 0.00 0.03 73 1005.2
20260902054547 15 37 0.0 0.0 0.00 0.00 0.03 72 1005.3
20260902053029 15 37 0.0 0.0 0.00 0.00 0.03 70 1005.8
20260902051529 15 37 0.0 0.0 0.00 0.00 0.03 69 1005.8
20260902050014 15 38 0.0 0.0 0.00 0.00 0.03 70 1005.5
20260902044526 16 38 0.0 0.0 0.00 0.00 0.03 67 1005.2
20260902043056 16 38 0.0 0.0 0.00 0.00 0.03 68 1005.2
20260902041552 16 38 0.0 0.0 0.00 0.00 0.03 69 1005.3
20260902040035 16 71 1.6 0.0 0.00 0.00 0.03 68 1005.5
20260902034533 16 103 0.0 0.0 0.00 0.00 0.03 64 1005.5
20260902033014 17 103 0.0 0.0 0.00 0.00 0.03 62 1005.3
20260902031519 18 103 1.6 0.0 0.00 0.00 0.03 60 1005.3
20260902030057 18 98 1.6 0.0 0.00 0.00 0.03 60 1005.4
20260902024607 18 82 0.0 0.0 0.00 0.00 0.03 60 1005.4
20260902023040 18 82 3.2 0.0 0.00 0.00 0.03 60 1005.5
20260902021544 18 53 1.6 0.0 0.00 0.00 0.03 62 1005.5
20260902020019 18 22 0.0 0.0 0.00 0.00 0.03 64 1005.5
20260902014541 18 22 1.6 0.0 0.00 0.00 0.03 65 1005.5
20260902013001 18 22 0.0 0.0 0.00 0.00 0.03 65 1005.2
20260902011501 18 22 3.2 0.0 0.00 0.00 0.03 64 1005.3
20260902010049 18 21 4.8 0.0 0.00 0.00 0.03 64 1005.9
20260902004546 18 323 1.6 0.0 0.00 0.00 0.03 66 1005.9
20260902003045 18 55 6.4 0.0 0.00 0.00 0.03 67 1005.8
20260902001545 18 65 4.8 0.0 0.00 0.00 0.03 65 1006.1
20260902000046 18 65 9.7 0.0 0.00 0.00 0.03 64 1005.8
20260901234600 18 73 14.5 0.0 0.00 0.00 0.03 65 1005.8
20260901233052 18 62 11.3 0.0 0.00 0.00 0.03 62 1006.0
20260901231544 18 48 6.4 0.0 0.00 0.00 0.03 61 1006.2
20260901230049 18 346 1.6 0.0 0.00 0.00 0.03 63 1006.3
20260901224544 18 303 0.0 0.0 0.00 0.00 0.03 65 1006.9
20260901223023 18 303 6.4 0.0 0.00 0.00 0.03 64 1007.2
20260901221555 18 300 8.0 0.0 0.00 0.00 0.03 61 1007.4
20260901220012 18 292 6.4 0.0 0.00 0.00 0.00 58 1007.2
20260901214503 21 290 6.4 0.0 0.00 0.00 0.00 48 1007.4
20260901213047 21 305 8.0 0.0 0.00 0.00 0.00 48 1007.1
20260901211543 22 292 6.4 0.0 0.00 0.00 0.00 42 1007.2
20260901210026 23 307 0.0 0.0 0.00 0.00 0.00 41 1006.4
20260901204533 22 307 0.0 0.0 0.00 0.00 0.00 39 1006.4
20260901203009 22 307 0.0 0.0 0.00 0.00 0.00 39 1006.2
20260901201521 22 307 1.6 0.0 0.00 0.00 0.00 39 1006.1
20260901200106 23 308 6.4 0.0 0.00 0.00 0.00 38 1006.1
20260901194547 26 261 3.2 0.0 0.00 0.00 0.00 30 1005.9
20260901193057 27 267 4.8 0.0 0.00 0.00 0.00 23 1005.9
20260901191528 27 200 6.4 0.0 0.00 0.00 0.00 23 1005.9
20260901190031 26 293 4.8 0.0 0.00 0.00 0.00 26 1005.9
20260901184506 25 200 3.2 0.0 0.00 0.00 0.00 30 1006.0
20260901183005 25 203 8.0 0.0 0.00 0.00 0.00 29 1006.0
20260901181546 25 217 9.7 0.0 0.00 0.00 0.00 28 1005.8
20260901180045 26 175 4.8 0.0 0.00 0.00 0.00 29 1005.5
20260901174529 25 166 4.8 0.0 0.00 0.00 0.00 29 1005.5
20260901173022 24 168 1.6 0.0 0.00 0.00 0.00 32 1005.5
20260901171502 23 168 3.2 0.0 0.00 0.00 0.00 34 1005.5
20260901170100 22 217 0.0 0.0 0.00 0.00 0.00 36 1005.6